[[{"header":{"parameterUnit":"m.s-1","parameterCategory":1,"la1":30.2991,"la2":30.254,"lo1":-89.0895,"lo2":-89.0444,"dy":0.0017,"dx":0.0017,"nx":28,"ny":28,"refTime":"2024-07-04T21:00:00:Z","depth":0,"parameterNumber":2,"parameterNumberName":"U-component_of_WINDS"},"data":[0,0,0,0,0,0,0,0,0,0,0,0,0,0,0,0,0,0,0,0,0,0,0,0,0,0,0,0,0,0,0,0,0,0,0,0,0,0,0,0,0,0,0,0,0,0,0,0,0,0,0,0,0,0,0,0,0,0,1.6748,1.675,0,1.6932,1.6934,1.6937,1.6998,1.6998,1.6997,1.6996,1.7186,1.7192,1.7197,0,0,0,0,0,0,0,0,0,0,0,0,0,1.6451,1.6456,1.6748,1.675,1.6753,1.6932,1.6935,1.6937,1.6998,1.6998,1.6997,1.6996,1.7184,1.7191,1.7198,0,0,0,0,0,0,0,0,0,0,0,0,0,1.6602,1.6458,1.6748,1.6805,1.6812,1.6931,1.6935,1.6938,1.6999,1.6998,1.6996,1.6995,1.7182,1.719,1.7199,1.7275,0,0,1.7225,1.7229,0,0,0,0,0,0,0,0,1.6593,1.6613,1.6794,1.6801,1.6809,1.6941,1.6899,1.7051,1.6999,1.6928,1.6996,1.6995,1.7106,1.712,1.7157,1.7284,1.7292,1.7226,1.7231,1.7235,1.7237,0,0,0,0,0,0,0,1.6583,1.6605,1.6821,1.6797,1.6806,1.6822,1.6842,1.6928,1.7021,1.6934,1.6939,1.696,1.7109,1.7149,1.7162,1.7295,1.7226,1.7233,1.7239,1.7242,1.7494,1.7495,0,0,0,0,0,0,1.6562,1.6596,1.6815,1.6827,1.6696,1.6828,1.6851,1.69,1.702,1.7037,1.6961,1.6962,1.7135,1.7152,1.7169,1.7267,1.7235,1.7243,1.7248,1.7492,1.7494,1.7496,0,0,0,0,0,0,1.6556,1.6581,1.6808,1.6713,1.6743,1.6834,1.6889,1.6904,1.6944,1.704,1.7057,1.6984,1.7135,1.7157,1.7248,1.7274,1.7247,1.7255,1.749,1.7493,1.7495,1.7461,0,0,0,0,0,0,1.6547,1.6579,1.6608,1.6713,1.6748,1.6883,1.6891,1.6909,1.6958,1.6962,1.7067,1.7083,1.7135,1.7235,1.7257,1.7285,1.7261,1.7488,1.7491,1.7494,1.7461,1.7462,1.7464,0,0,0,0,0,1.6536,1.6592,1.6609,1.6636,1.6786,1.6884,1.6904,1.6963,1.696,1.6991,1.7053,1.708,1.7268,1.7244,1.7269,1.73,1.7487,1.7491,1.7494,1.746,1.7462,1.7463,0,0,0,0,0,0,1.6488,1.6607,1.6627,1.6719,1.6791,1.6895,1.6935,1.6964,1.7039,1.7039,1.7109,1.7132,1.7218,1.7269,1.724,1.7381,1.7379,1.7387,1.7344,1.7347,1.7348,1.7334,1.7269,0,0,0,0,0,1.6488,1.6557,1.6657,1.6728,1.6763,1.6843,1.6888,1.6927,1.7005,1.7036,1.7105,1.7179,1.7256,1.7304,1.738,1.7468,1.7492,1.7503,1.7504,1.7505,1.7511,1.7562,1.7567,1.7507,1.7507,1.7506,0,0,1.6488,1.6562,1.6601,1.672,1.6781,1.6851,1.6868,1.6942,1.6995,1.7047,1.7137,1.719,1.7279,1.7369,1.7412,1.7414,1.7533,1.7509,1.7509,1.7515,1.7566,1.7571,1.7576,1.7509,1.7508,1.7508,0,0,1.6526,1.6588,1.6654,1.6714,1.6806,1.6859,1.6874,1.6974,1.7011,1.7102,1.7143,1.7207,1.7337,1.7398,1.7446,1.7507,1.7534,1.753,1.7537,1.7585,1.759,1.7595,1.7616,1.7623,1.7536,1.7536,1.7536,0,1.6515,1.6622,1.6684,1.6756,1.6807,1.6857,1.6924,1.698,1.7092,1.7126,1.7126,1.729,1.7353,1.7458,1.7472,1.751,1.753,1.7518,1.7585,1.759,1.7595,1.7616,1.7624,1.7534,1.7535,1.7535,1.7535,0,1.6604,1.6678,1.6721,1.6827,1.6883,1.6952,1.7024,1.7073,1.7108,1.716,1.7253,1.733,1.7422,1.745,1.7485,1.756,1.7558,1.7571,1.757,1.7598,1.7619,1.7628,1.7533,1.7533,1.7533,1.7534,0,0,1.6616,1.6755,1.677,1.6818,1.6923,1.6982,1.7053,1.7143,1.7184,1.7259,1.7321,1.7429,1.7441,1.7496,1.7538,1.758,1.7623,1.7588,1.7591,1.7591,1.7711,1.77,1.7708,1.7642,1.7643,1.7645,1.7703,0,1.6666,1.6795,1.6853,1.6957,1.7026,1.7075,1.7137,1.7208,1.726,1.7326,1.7383,1.7458,1.7469,1.7502,1.7546,1.7608,1.7647,1.7605,1.77,1.7702,1.7675,1.7719,1.7709,1.776,1.7712,1.7713,1.7714,0,1.6742,1.6817,1.6927,1.7024,1.7055,1.711,1.7197,1.7259,1.7341,1.7376,1.7436,1.7476,1.7554,1.7548,1.7655,1.7625,1.7667,1.7704,1.7707,1.7718,1.7709,1.7731,1.7778,1.7785,1.7728,1.7727,1.7726,0,1.6738,1.6867,1.695,1.699,1.7105,1.7143,1.7192,1.7273,1.7323,1.7399,1.7432,1.7516,1.7562,1.7626,1.7688,1.7678,1.779,1.7789,1.782,1.7819,1.7841,1.7839,1.7895,1.7869,1.7869,1.7869,1.7869,0,1.6788,1.6853,1.695,1.7,1.7075,1.7141,1.7214,1.7267,1.7339,1.7401,1.7449,1.7506,1.7584,1.7652,1.7701,1.7782,1.7802,1.7832,1.7844,1.7828,1.7824,1.7856,1.7854,1.7871,1.787,1.787,1.787,0,1.6796,1.6864,1.6957,1.7058,1.7085,1.7136,1.7223,1.7274,1.7327,1.7406,1.7428,1.7512,1.7594,1.7662,1.7769,1.7802,1.7887,1.7901,1.7859,1.7865,1.7892,1.7888,1.797,1.7984,1.7949,1.7949,1.7949,0,1.6823,1.6875,1.6982,1.7027,1.7076,1.7147,1.7199,1.7266,1.7318,1.7415,1.7454,1.7539,1.7611,1.7739,1.781,1.7893,1.7909,1.7932,1.7922,1.7903,1.7909,1.7905,1.791,1.7933,1.7933,1.7933,1.7933,0,1.6864,1.6895,1.6967,1.7051,1.7111,1.718,1.725,1.7284,1.7365,1.742,1.7504,1.756,1.7669,1.7753,1.7843,1.7895,1.7927,1.7936,1.7947,1.793,1.7904,1.7918,1.786,1.7933,1.7933,1.7933,1.7933,1.7933,1.6883,1.6931,1.7013,1.7092,1.7152,1.7217,1.727,1.733,1.7401,1.7495,1.7531,1.7617,1.7698,1.7822,1.7874,1.7942,1.7946,1.7963,1.7967,1.797,1.7968,1.7893,1.7959,1.7959,1.7959,1.7959,1.7959,0,1.6925,1.6981,1.7053,1.715,1.7212,1.7237,1.7316,1.7366,1.7441,1.7514,1.7583,1.768,1.7761,1.7839,1.7924,1.7964,1.7981,1.7984,1.7982,1.7993,1.7959,1.7941,1.7969,1.7969,1.7969,1.7969,1.7969,1.7969,1.6955,1.7037,1.7078,1.7191,1.7246,1.733,1.7374,1.7434,1.7492,1.7597,1.7665,1.7715,1.779,1.7881,1.7957,1.7978,1.8007,1.8006,1.803,1.7997,1.7995,1.7994,1.7976,1.8012,1.8012,1.8059,1.8059,1.8059]},{"header":{"parameterUnit":"m.s-1","parameterCategory":1,"la1":30.2991,"la2":30.254,"lo1":-89.0895,"lo2":-89.0444,"dy":0.0017,"dx":0.0017,"nx":28,"ny":28,"refTime":"2024-07-04T21:00:00:Z","depth":0,"parameterNumber":3,"parameterNumberName":"V-component_of_WINDS"},"data":[0,0,0,0,0,0,0,0,0,0,0,0,0,0,0,0,0,0,0,0,0,0,0,0,0,0,0,0,0,0,0,0,0,0,0,0,0,0,0,0,0,0,0,0,0,0,0,0,0,0,0,0,0,0,0,0,0,0,6.2224,6.2224,0,6.2298,6.2299,6.23,6.2241,6.2239,6.2237,6.2234,6.2302,6.2306,6.231,0,0,0,0,0,0,0,0,0,0,0,0,0,6.2022,6.2027,6.2224,6.2225,6.2225,6.2298,6.2299,6.23,6.2242,6.2239,6.2236,6.2233,6.23,6.2305,6.231,0,0,0,0,0,0,0,0,0,0,0,0,0,6.2104,6.2028,6.2223,6.2206,6.2205,6.2298,6.2299,6.23,6.2243,6.2239,6.2235,6.2232,6.2299,6.2305,6.2311,6.2423,0,0,6.233,6.2332,0,0,0,0,0,0,0,0,6.21,6.2112,6.2207,6.2207,6.2206,6.2257,6.2253,6.2341,6.2243,6.2228,6.2234,6.223,6.2289,6.2296,6.2318,6.2426,6.2429,6.233,6.2334,6.2337,6.2338,0,0,0,0,0,0,0,6.2094,6.2108,6.2253,6.2209,6.2208,6.2191,6.2198,6.2269,6.2278,6.2229,6.2225,6.2235,6.2288,6.2312,6.2319,6.243,6.233,6.2336,6.2339,6.2342,6.2632,6.2636,0,0,0,0,0,0,6.2092,6.2104,6.225,6.2255,6.2143,6.2197,6.2206,6.2244,6.2277,6.2279,6.2238,6.2232,6.2303,6.2312,6.2321,6.2454,6.2337,6.2342,6.2346,6.2628,6.2633,6.2638,0,0,0,0,0,0,6.2087,6.2105,6.2247,6.2178,6.2195,6.2205,6.2248,6.2248,6.2271,6.2284,6.2285,6.2261,6.2301,6.2312,6.2398,6.2455,6.2345,6.2351,6.2624,6.263,6.2636,6.2721,0,0,0,0,0,0,6.2082,6.2104,6.2149,6.218,6.2199,6.2326,6.2252,6.2252,6.2283,6.2276,6.2306,6.2308,6.2299,6.239,6.2404,6.2462,6.2355,6.2619,6.2626,6.2634,6.2713,6.2729,6.2743,0,0,0,0,0,6.2075,6.2168,6.2152,6.2169,6.2256,6.233,6.234,6.2331,6.2288,6.2332,6.234,6.2307,6.2447,6.2399,6.2415,6.2475,6.2615,6.2624,6.2633,6.2706,6.2726,6.2743,0,0,0,0,0,0,6.214,6.2172,6.2154,6.2261,6.2293,6.232,6.2375,6.2352,6.2395,6.2386,6.237,6.2377,6.2468,6.248,6.2426,6.2585,6.2524,6.2536,6.2574,6.2593,6.2607,6.2602,6.2361,0,0,0,0,0,6.2168,6.2228,6.2251,6.2343,6.2361,6.2365,6.2397,6.2387,6.2419,6.2431,6.2446,6.2476,6.2526,6.256,6.2607,6.2715,6.2719,6.2764,6.2779,6.2791,6.2802,6.2859,6.2878,6.2668,6.2667,6.2667,0,0,6.2224,6.2249,6.2287,6.2357,6.2381,6.2441,6.2377,6.2443,6.2487,6.244,6.2524,6.2535,6.2567,6.2664,6.2707,6.2677,6.2862,6.2803,6.2812,6.2817,6.287,6.289,6.2908,6.2674,6.2673,6.2672,0,0,6.2357,6.2383,6.2462,6.2488,6.2527,6.2529,6.2548,6.2579,6.2585,6.2669,6.2635,6.2685,6.2773,6.2798,6.2822,6.2964,6.2935,6.298,6.3058,6.3113,6.313,6.3144,6.3195,6.3213,6.2991,6.2991,6.2991,0,6.2421,6.2514,6.2505,6.2575,6.2605,6.2569,6.2647,6.2672,6.2723,6.2744,6.2709,6.2819,6.2838,6.294,6.2975,6.2996,6.3015,6.2976,6.3129,6.3143,6.3157,6.3204,6.3223,6.2996,6.2995,6.2995,6.2994,0,6.259,6.2655,6.2713,6.2767,6.2804,6.2878,6.2877,6.2915,6.2902,6.2907,6.2991,6.3013,6.3064,6.3087,6.3074,6.3187,6.3167,6.3131,6.3069,6.3182,6.3227,6.3245,6.3004,6.3002,6.3,6.2999,0,0,6.2767,6.2815,6.2837,6.2861,6.2901,6.2949,6.3019,6.3072,6.3105,6.314,6.3198,6.3274,6.3241,6.3268,6.3256,6.3305,6.3416,6.3263,6.3263,6.329,6.3541,6.3568,6.359,6.3397,6.34,6.3403,6.3539,0,6.2902,6.3029,6.3023,6.3141,6.3199,6.3165,6.3226,6.3256,6.3263,6.331,6.3316,6.337,6.3323,6.3339,6.3386,6.3393,6.3466,6.3383,6.3448,6.3451,6.3442,6.3613,6.3642,6.3769,6.3556,6.3559,6.3561,0,6.3076,6.3122,6.3247,6.3278,6.3302,6.3358,6.3406,6.3453,6.3484,6.3485,6.3517,6.3497,6.3566,6.3503,6.3596,6.354,6.3566,6.3573,6.3578,6.3583,6.3513,6.3623,6.3809,6.3828,6.3588,6.3586,6.3584,0,6.3192,6.3284,6.3371,6.3392,6.3431,6.3471,6.3488,6.3516,6.3548,6.3589,6.3609,6.3656,6.3681,6.3717,6.371,6.3665,6.3805,6.3741,6.3806,6.3806,6.3837,6.3835,6.403,6.3854,6.3854,6.3853,6.3853,0,6.3344,6.3421,6.3424,6.3477,6.3562,6.3552,6.3636,6.3648,6.3674,6.3727,6.3699,6.3748,6.3736,6.3784,6.3778,6.3856,6.3867,6.3869,6.3866,6.3871,6.3871,6.3888,6.3879,6.3858,6.3857,6.3856,6.3856,0,6.3488,6.3493,6.3585,6.3615,6.3624,6.3685,6.3709,6.3758,6.3762,6.3829,6.3844,6.385,6.3906,6.3902,6.3964,6.396,6.4056,6.4043,6.4046,6.4043,6.4108,6.4102,6.4321,6.4348,6.4155,6.4157,6.4158,0,6.3585,6.3644,6.3681,6.3716,6.3737,6.3793,6.3826,6.3819,6.3854,6.3895,6.3938,6.3992,6.4034,6.4124,6.4132,6.4178,6.4166,6.4239,6.4173,6.4176,6.4167,6.4163,6.4169,6.4252,6.4254,6.4256,6.4258,0,6.3755,6.3755,6.3806,6.3858,6.3899,6.3939,6.3975,6.4004,6.3999,6.404,6.4098,6.4131,6.4195,6.4248,6.4293,6.4307,6.4281,6.4279,6.4296,6.4302,6.4301,6.4302,6.4082,6.4274,6.4272,6.4271,6.427,6.4269,6.3878,6.3929,6.3964,6.4021,6.4048,6.4083,6.413,6.4142,6.4191,6.4245,6.4236,6.4301,6.4329,6.4387,6.4406,6.4454,6.4427,6.4453,6.4459,6.4465,6.4473,6.4294,6.4462,6.4462,6.4461,6.4461,6.446,0,6.4047,6.4068,6.4121,6.4174,6.4219,6.4193,6.4232,6.427,6.4328,6.4359,6.4402,6.4467,6.4518,6.4531,6.4579,6.4616,6.4605,6.4629,6.4626,6.4629,6.4494,6.4474,6.4636,6.4636,6.4636,6.4636,6.4636,6.4636,6.4141,6.4226,6.423,6.4327,6.4346,6.4412,6.4436,6.4466,6.4491,6.4567,6.461,6.4619,6.4641,6.4691,6.4736,6.4738,6.4757,6.4785,6.4783,6.4656,6.4639,6.4622,6.4603,6.479,6.479,6.4914,6.4915,6.4916]}]]